FENGYUN 1C DEB, 31246

Orbit data source: Space-Track

FENGYUN 1C DEB, 31246 is space debris in SSO originally from a launch on Mon, 10 May 1999 UTC launched from the Taiyaun Space Center, China (TSC). Fengyun 1C debris stems from the Chinese weather satellite Fengyun-1C, which was intentionally destroyed by a Chinese anti-satellite missile in 2007. This event dramatically increased the amount of space debris, with thousands of trackable fragments posing hazards to satellites and human spaceflight. The Fengyun 1C debris cloud has become a focal point in discussions about space sustainability and the need for international regulations to prevent the creation of new debris.

Loading next visibility...
Identifier
31246, 1999-025BMC
Orbit
SSO
Country
Flag of CNCN / PRC
Related business
Manufacturer
Unknown
Mission
Spacecraft
Bus & Motor
Unknown
Mass
Unknown
Launch date (UTC)
1999-05-10 (27 years ago)
Launch vehicle
Unknown
Launch site
Taiyaun Space Center, China (TSC)
Object type
Payload
Rocket body
Debris
Shape & HBR
Unknown shape, 1.1 m
Radar Cross Section
Medium (>0.1 m² and <1 m²)

Expand to show TLE details & history
Last TLE update: 2 weeks ago

TLE from 2 weeks ago
0 FENGYUN 1C DEB
1 31246U 99025BMC 26225.79237003  .00001423  00000-0  77002-3 0  9998
2 31246  98.7967  72.0531 0146127  16.8308 343.7637 14.08803971651870
Epoch: 2026-08-13T19:01Z
TLE epoch observation values (Epoch: 2026-08-13T19:01:00.770Z)
Latitude
-0.00006°
Longitude
-175.42697°
Altitude
764.869 km
Speed
7.524 km/s
True Right ascension
04h 48m 12s
True Declination
0° 00' 00"
Sunlit
Object was in daylight at epoch
Visualization orbit readout
Latitude
Unknown
Longitude
Unknown
Altitude
Unknown
Speed
Unknown
Apparent Right ascension
Unknown
Apparent Declination
Unknown
Sunlit
N/A
Visualization observer readout
Local Sidereal Time
18:19:18
Azimuth
Unknown
Elevation
Unknown
Doppler factor
Unknown
Orbital elements
Apogee altitude
966.422 km
Perigee altitude
754.866 km
Semi-major axis
7,238.781 km
Eccentricity
0.01461
Inclination
98.7967°
RAAN
72.0531°
Arg. of periapsis
16.8308°
True anomaly
343.28717°
Mean anomaly
343.7637°
Eccentric anomaly
343.52628°
Mean motion
3.52407 °/min
Orbital period
102.15 mins
BSTAR
0.00077002
Loading maneuver chart data...
Computing Atmospheric mass density...

Documentation

Showing up to 5 results
|